| time (UTC) | temp C | wind direction | speed KPH | gust KPH | rain 1hr cm | rain 24hr cm | rain mn cm | humidity % | barometer mb |
| 20260507162758 | 16 | 347 | 0.0 | 0.0 | 0.00 | 0.00 | 0.00 | 54 | 1013.5 |
| 20260507161257 | 16 | 328 | 3.2 | 3.2 | 0.00 | 0.00 | 0.00 | 57 | 1013.5 |
| 20260507155756 | 16 | 35 | 1.6 | 1.6 | 0.00 | 0.00 | 0.00 | 51 | 1013.5 |
| 20260507154255 | 16 | 355 | 0.0 | 0.0 | 0.00 | 0.00 | 0.00 | 55 | 1013.5 |
| 20260507152754 | 17 | 322 | 0.0 | 0.0 | 0.00 | 0.00 | 0.00 | 52 | 1013.5 |
| 20260507151254 | 18 | 326 | 3.2 | 3.2 | 0.00 | 0.00 | 0.00 | 49 | 1013.5 |
| 20260507145753 | 18 | 68 | 1.6 | 1.6 | 0.00 | 0.00 | 0.00 | 48 | 1013.5 |
| 20260507144252 | 18 | 336 | 3.2 | 3.2 | 0.00 | 0.00 | 0.00 | 49 | 1013.5 |
| 20260507142751 | 17 | 10 | 0.0 | 0.0 | 0.00 | 0.00 | 0.00 | 52 | 1013.2 |
| 20260507141250 | 18 | 287 | 1.6 | 3.2 | 0.00 | 0.00 | 0.00 | 52 | 1013.2 |
| 20260507135748 | 17 | 356 | 1.6 | 3.2 | 0.00 | 0.00 | 0.00 | 52 | 1013.5 |
| 20260507134248 | 17 | 5 | 0.0 | 0.0 | 0.00 | 0.00 | 0.00 | 51 | 1013.5 |
| 20260507132747 | 16 | 53 | 3.2 | 4.8 | 0.00 | 0.00 | 0.00 | 53 | 1013.5 |
| 20260507131246 | 16 | 67 | 0.0 | 0.0 | 0.00 | 0.00 | 0.00 | 54 | 1013.5 |
| 20260507125745 | 17 | 355 | 3.2 | 4.8 | 0.00 | 0.00 | 0.00 | 53 | 1013.5 |
| 20260507124244 | 17 | 302 | 3.2 | 3.2 | 0.00 | 0.00 | 0.00 | 55 | 1013.5 |
| 20260507122742 | 15 | 354 | 3.2 | 4.8 | 0.00 | 0.00 | 0.00 | 60 | 1013.5 |
| 20260507121241 | 16 | 30 | 1.6 | 3.2 | 0.00 | 0.00 | 0.00 | 62 | 1013.2 |
| 20260507115741 | 15 | 329 | 3.2 | 3.2 | 0.00 | 0.00 | 0.00 | 59 | 1013.2 |
| 20260507114240 | 16 | 274 | 3.2 | 6.4 | 0.00 | 0.00 | 0.00 | 56 | 1013.2 |
| 20260507112738 | 15 | 55 | 0.0 | 1.6 | 0.00 | 0.00 | 0.00 | 60 | 1013.2 |
| 20260507111237 | 15 | 293 | 3.2 | 4.8 | 0.00 | 0.00 | 0.00 | 61 | 1013.2 |
| 20260507105736 | 15 | 77 | 1.6 | 1.6 | 0.00 | 0.00 | 0.00 | 61 | 1013.2 |
| 20260507104235 | 14 | 37 | 6.4 | 9.7 | 0.00 | 0.00 | 0.00 | 61 | 1013.5 |
| 20260507102734 | 14 | 342 | 0.0 | 1.6 | 0.00 | 0.00 | 0.00 | 62 | 1013.5 |
| 20260507101233 | 13 | 350 | 0.0 | 1.6 | 0.00 | 0.00 | 0.00 | 67 | 1013.5 |
| 20260507095732 | 13 | 302 | 3.2 | 3.2 | 0.00 | 0.00 | 0.00 | 66 | 1013.2 |
| 20260507094232 | 13 | 5 | 0.0 | 1.6 | 0.00 | 0.00 | 0.00 | 69 | 1013.2 |
| 20260507092731 | 12 | 63 | 1.6 | 1.6 | 0.00 | 0.00 | 0.00 | 72 | 1012.8 |
| 20260507091230 | 12 | 337 | 4.8 | 9.7 | 0.00 | 0.00 | 0.00 | 72 | 1012.8 |
| 20260507085729 | 12 | 271 | 3.2 | 3.2 | 0.00 | 0.00 | 0.00 | 71 | 1012.8 |
| 20260507084227 | 13 | 81 | 3.2 | 4.8 | 0.00 | 0.00 | 0.00 | 69 | 1012.8 |
| 20260507082727 | 12 | 297 | 4.8 | 6.4 | 0.00 | 0.00 | 0.00 | 72 | 1012.8 |
| 20260507081226 | 12 | 40 | 6.4 | 9.7 | 0.00 | 0.00 | 0.00 | 71 | 1012.5 |
| 20260507075725 | 12 | 331 | 1.6 | 1.6 | 0.00 | 0.00 | 0.00 | 76 | 1012.5 |
| 20260507074224 | 11 | 341 | 0.0 | 0.0 | 0.00 | 0.00 | 0.00 | 77 | 1012.5 |
| 20260507072723 | 10 | 338 | 6.4 | 9.7 | 0.00 | 0.00 | 0.00 | 81 | 1012.5 |
| 20260507071222 | 10 | 341 | 3.2 | 4.8 | 0.00 | 0.00 | 0.00 | 83 | 1012.2 |
| 20260507065722 | 10 | 356 | 0.0 | 0.0 | 0.00 | 0.00 | 0.00 | 84 | 1012.2 |
| 20260507064221 | 10 | 332 | 0.0 | 0.0 | 0.00 | 0.00 | 0.00 | 86 | 1012.2 |
| 20260507062720 | 9 | 69 | 0.0 | 0.0 | 0.00 | 0.00 | 0.00 | 87 | 1011.8 |
| 20260507061219 | 9 | 10 | 1.6 | 3.2 | 0.00 | 0.00 | 0.00 | 87 | 1012.2 |
| 20260507055718 | 8 | 59 | 1.6 | 1.6 | 0.00 | 0.00 | 0.00 | 88 | 1011.8 |
| 20260507054217 | 8 | 282 | 0.0 | 0.0 | 0.00 | 0.00 | 0.00 | 88 | 1011.8 |
| 20260507052717 | 8 | 173 | 0.0 | 0.0 | 0.00 | 0.00 | 0.00 | 88 | 1011.5 |
| 20260507051216 | 8 | 355 | 0.0 | 0.0 | 0.00 | 0.00 | 0.00 | 89 | 1011.5 |
| 20260507045715 | 8 | 47 | 0.0 | 0.0 | 0.00 | 0.00 | 0.00 | 89 | 1011.1 |
| 20260507044214 | 8 | 45 | 0.0 | 0.0 | 0.00 | 0.00 | 0.00 | 88 | 1011.1 |
| 20260507042714 | 8 | 322 | 1.6 | 1.6 | 0.00 | 0.00 | 0.00 | 87 | 1010.8 |
| 20260507041212 | 8 | 340 | 0.0 | 1.6 | 0.00 | 0.00 | 0.00 | 88 | 1010.8 |
| 20260507035711 | 8 | 59 | 1.6 | 3.2 | 0.00 | 0.00 | 0.00 | 88 | 1010.8 |
| 20260507034210 | 8 | 56 | 1.6 | 3.2 | 0.00 | 0.00 | 0.00 | 88 | 1010.8 |
| 20260507032710 | 8 | 343 | 1.6 | 1.6 | 0.00 | 0.00 | 0.00 | 88 | 1010.5 |
| 20260507031209 | 8 | 84 | 1.6 | 4.8 | 0.00 | 0.00 | 0.00 | 88 | 1010.5 |
| 20260507025708 | 8 | 17 | 0.0 | 0.0 | 0.00 | 0.00 | 0.00 | 88 | 1010.1 |
| 20260507024207 | 8 | 8 | 0.0 | 1.6 | 0.00 | 0.00 | 0.00 | 88 | 1010.1 |
| 20260507022706 | 8 | 62 | 1.6 | 1.6 | 0.00 | 0.00 | 0.00 | 89 | 1010.5 |
| 20260507021206 | 8 | 55 | 1.6 | 1.6 | 0.00 | 0.00 | 0.00 | 90 | 1010.1 |
| 20260507015704 | 8 | 54 | 1.6 | 1.6 | 0.00 | 0.00 | 0.00 | 90 | 1010.1 |
| 20260507014204 | 8 | 327 | 4.8 | 9.7 | 0.00 | 0.00 | 0.00 | 90 | 1009.8 |
| 20260507012703 | 8 | 56 | 0.0 | 1.6 | 0.00 | 0.00 | 0.00 | 90 | 1009.8 |
| 20260507011202 | 8 | 334 | 4.8 | 6.4 | 0.00 | 0.00 | 0.00 | 90 | 1009.8 |
| 20260507005700 | 8 | 334 | 0.0 | 3.2 | 0.00 | 0.00 | 0.00 | 90 | 1009.8 |
| 20260507004159 | 8 | 16 | 1.6 | 1.6 | 0.00 | 0.00 | 0.00 | 90 | 1009.8 |
| 20260507002658 | 8 | 352 | 1.6 | 1.6 | 0.00 | 0.00 | 0.00 | 90 | 1009.5 |
| 20260507001157 | 8 | 73 | 0.0 | 0.0 | 0.00 | 0.00 | 0.00 | 91 | 1009.5 |
| 20260506235656 | 8 | 9 | 1.6 | 1.6 | 0.00 | 0.00 | 0.00 | 91 | 1009.5 |
| 20260506234155 | 8 | 45 | 0.0 | 0.0 | 0.00 | 0.00 | 0.00 | 91 | 1009.1 |
| 20260506232654 | 8 | 333 | 3.2 | 4.8 | 0.00 | 0.00 | 0.00 | 91 | 1009.5 |
| 20260506231154 | 8 | 6 | 1.6 | 1.6 | 0.00 | 0.00 | 0.00 | 92 | 1009.5 |
| 20260506225652 | 8 | 2 | 3.2 | 3.2 | 0.00 | 0.00 | 0.00 | 92 | 1009.1 |
| 20260506224151 | 8 | 45 | 0.0 | 0.0 | 0.00 | 0.00 | 0.00 | 92 | 1009.1 |
| 20260506222650 | 9 | 356 | 1.6 | 4.8 | 0.00 | 0.00 | 0.00 | 92 | 1009.1 |
| 20260506221149 | 9 | 342 | 0.0 | 0.0 | 0.00 | 0.00 | 0.00 | 92 | 1009.1 |
| 20260506215648 | 9 | 10 | 1.6 | 1.6 | 0.00 | 0.00 | 0.97 | 92 | 1008.8 |
| 20260506214147 | 9 | 11 | 0.0 | 0.0 | 0.18 | 0.00 | 0.97 | 92 | 1008.8 |
| 20260506212647 | 9 | 4 | 0.0 | 0.0 | 0.00 | 0.00 | 0.94 | 92 | 1008.8 |
| 20260506211146 | 9 | 349 | 0.0 | 0.0 | 0.00 | 0.00 | 0.94 | 92 | 1008.4 |
| 20260506205644 | 9 | 32 | 0.0 | 1.6 | 0.13 | 0.00 | 0.94 | 91 | 1008.1 |
| 20260506204144 | 9 | 24 | 1.6 | 3.2 | 0.18 | 0.00 | 0.91 | 91 | 1008.4 |
| 20260506202642 | 9 | 337 | 0.0 | 1.6 | 0.00 | 0.00 | 0.89 | 91 | 1008.4 |
| 20260506201141 | 9 | 349 | 0.0 | 0.0 | 0.00 | 0.00 | 0.89 | 91 | 1008.1 |
| 20260506195640 | 9 | 55 | 0.0 | 1.6 | 0.00 | 0.00 | 0.89 | 91 | 1008.1 |
| 20260506194139 | 9 | 343 | 4.8 | 6.4 | 0.00 | 0.00 | 0.89 | 91 | 1008.1 |
| 20260506192638 | 9 | 325 | 3.2 | 4.8 | 0.00 | 0.00 | 0.89 | 92 | 1007.8 |
| 20260506191137 | 9 | 7 | 1.6 | 3.2 | 0.00 | 0.00 | 0.89 | 92 | 1007.8 |
| 20260506185637 | 9 | 337 | 1.6 | 1.6 | 0.00 | 0.00 | 0.89 | 92 | 1007.4 |
| 20260506184136 | 9 | 343 | 3.2 | 4.8 | 0.00 | 0.00 | 0.89 | 92 | 1007.4 |
| 20260506182634 | 9 | 0 | 0.0 | 0.0 | 0.13 | 0.00 | 0.89 | 92 | 1007.1 |
| 20260506181134 | 9 | 318 | 0.0 | 0.0 | 0.00 | 0.00 | 0.86 | 92 | 1006.7 |
| 20260506175633 | 9 | 19 | 1.6 | 1.6 | 0.00 | 0.00 | 0.86 | 92 | 1007.1 |
| 20260506174132 | 9 | 95 | 0.0 | 1.6 | 0.18 | 0.00 | 0.86 | 91 | 1007.1 |
| 20260506172631 | 9 | 58 | 0.0 | 0.0 | 0.00 | 0.00 | 0.84 | 91 | 1006.7 |
| 20260506171129 | 9 | 32 | 3.2 | 4.8 | 0.00 | 0.00 | 0.84 | 90 | 1006.7 |
| 20260506165628 | 10 | 81 | 0.0 | 0.0 | 0.00 | 0.00 | 0.84 | 90 | 1006.4 |